{"data":{"norad_id":58117,"epoch":"2026-09-20T11:41:19.952736Z","epoch_age_seconds":141598,"freshness":"FRESH","line1":"1 58117U 23161W   26263.48703649  .00004315  00000+0  13868-3 0  9996","line2":"2 58117  53.1606 339.4707 0000688  63.2047 296.9026 15.34419250164269","mean_motion":15.3441925,"eccentricity":6.88e-5,"inclination_deg":53.1606,"raan_deg":339.4707,"arg_perigee_deg":63.2047,"mean_anomaly_deg":296.9026,"bstar":0.00013868,"rev_number":16426,"period_min":93.846580717754,"perigee_km":462.17537987634,"apogee_km":463.11667162068,"semimajor_km":6840.7830257485,"source":"CELESTRAK","updated_at":"2026-09-21T09:00:33.790285Z"}}